Location: *
(58.4167°N, 22.5000°E)
Time: 16:09:03
(UTC+00:00)

Cosmos 2173 Rocket - Pass Details

Date: 22 September 2019
Orbit: 945 x 1000 km, 83.0° (Epoch: 19 October)

Event Time Altitude Azimuth Distance (km) Brightness Sun altitude
Rises 21:10:01 0° 346° (NNW) 3,737 8.2 -29.7°
Reaches altitude 10° 21:12:35 10° 344° (NNW) 2,786 7.3 -29.8°
Maximum altitude 21:18:53 63° 265° (W) 1,116 4.2 -30.1°
Enters shadow 21:19:09 62° 252° (WSW) 1,122 4.2 -30.1°
